Home   Weather   Evansville   Past weeks

Flag for USA Past Weather in Evansville, Indiana, USA — Yesterday and Last 2 Weeks

Now
63 °F

Sunny.


Feels Like: 63 °F
Forecast: 60 / 80 °F
Wind: 8 mph from South

Location: Evansville Regional Airport

Current Time: Apr 26, 2017 at 7:07:02 am

Latest Report: Apr 26, 2017 at 5:54 am


Visibility: 10 mi

Pressure: 29.62 "Hg

Humidity: 78%

Dew Point: 56 °F

Location of EvansvilleLocation

Past Weather in Evansville — Graph

°F

Evansville Temperature Yesterday

Maximum temperature yesterday: 78 °F (at 2:54 pm)
Minimum temperature yesterday: 52 °F (at 5:54 am)
Average temperature yesterday: 67 °F

High & Low Weather Summary for the Past Weeks

 TemperatureHumidityPressure
High85 °F (Apr 14, 1:54 pm)93% (Apr 16, 8:54 pm)30.38 "Hg (Apr 16, 8:54 pm)
Low45 °F (Apr 12, 5:54 am)24% (Apr 23, 5:54 pm)29.60 "Hg (Apr 25, 7:54 pm)
Average65 °F64%30.05 "Hg
* Reported Apr 11 6:01 am — Apr 26 5:54 am, Evansville, Weather by CustomWeather, © 2017

Note: Actual official high and low records may vary slightly from our data, if they occured in-between our weather recording intervals... More about our weather records

Advertising

Evansville Weather History for the Previous 24 Hours

Scroll right to see more
 ConditionsComfort  
Time TempWeatherWind HumidityBarometerVisibility
5:54 am
Wed, Apr 26
63 °FSunny.8 mph78%29.62 "Hg10 mi
4:54 am62 °FClear.6 mph80%29.62 "Hg10 mi
3:54 am63 °FClear.6 mph78%29.61 "Hg10 mi
2:54 am63 °FClear.7 mph78%29.61 "Hg10 mi
1:54 am63 °FClear.5 mph78%29.63 "Hg10 mi
12:54 am64 °FClear.No wind75%29.63 "Hg10 mi
11:54 pm
Tue, Apr 25
67 °FClear.5 mph68%29.63 "Hg10 mi
10:54 pm68 °FClear.5 mph65%29.61 "Hg10 mi
9:54 pm69 °FClear.7 mph63%29.61 "Hg10 mi
8:54 pm71 °FClear.6 mph59%29.60 "Hg10 mi
7:54 pm73 °FClear.9 mph57%29.60 "Hg10 mi
6:54 pm75 °FClear.8 mph54%29.61 "Hg10 mi
5:54 pm77 °FSunny.10 mph50%29.61 "Hg10 mi
3:54 pm78 °FSunny.N/A46%29.65 "Hg10 mi
2:54 pm78 °FSunny.9 mph46%29.67 "Hg10 mi
1:54 pm77 °FSunny.9 mph47%29.70 "Hg10 mi
12:54 pm75 °FScattered clouds.12 mph52%29.71 "Hg10 mi
11:54 am75 °FScattered clouds.8 mph52%29.74 "Hg10 mi
10:54 am72 °FSunny.7 mph55%29.75 "Hg10 mi
9:54 am70 °FSunny.No wind61%29.75 "Hg10 mi
8:54 am66 °FSunny.3 mph68%29.76 "Hg10 mi
7:54 am62 °FSunny.No wind78%29.76 "Hg10 mi
Weather by CustomWeather, © 2017

See weather overviewHow to use our weather pages